Date,TemperatureHighF,TemperatureAvgF,TemperatureLowF,DewpointHighF,DewpointAvgF,DewpointLowF,HumidityHigh,HumidityAvg,HumidityLow,PressureMaxIn,PressureMinIn,WindSpeedMaxMPH,WindSpeedAvgMPH,GustSpeedMaxMPH,PrecipitationSumIn
2013-1-1,78,73,63,66,62,59,89,69,60,30.19,30.05,14,3,14,0.00
2013-1-2,78,70,61,69,65,59,97,84,70,30.09,29.98,10,1,10,0.00
2013-1-3,80,73,66,71,68,64,95,84,70,30.12,30.02,11,1,11,0.00
2013-1-4,82,73,65,74,69,63,97,88,73,30.21,30.09,9,1,9,0.00
2013-1-5,78,71,66,73,68,64,97,91,78,30.24,30.15,8,1,8,0.09
2013-1-6,80,76,66,73,71,64,97,85,76,30.18,30.06,11,2,13,0.00
2013-1-7,80,72,67,72,69,66,96,90,70,30.16,30.06,11,1,11,0.08
2013-1-8,81,77,73,74,72,70,93,85,78,30.19,30.06,12,3,13,0.17
2013-1-9,81,78,76,73,72,69,88,81,76,30.27,30.15,14,4,15,0.00
2013-1-10,80,77,75,70,68,64,81,74,60,30.29,30.17,15,4,15,0.00
2013-1-11,80,76,74,71,69,67,87,77,70,30.25,30.14,12,4,14,0.01
2013-1-12,80,76,73,71,68,65,83,77,69,30.18,30.08,12,2,12,0.00
2013-1-13,79,76,74,69,67,63,83,74,65,30.12,30.06,13,4,14,0.00
2013-1-14,79,75,73,68,65,62,78,71,65,30.17,30.11,13,3,13,0.00
2013-1-15,78,75,73,69,67,64,84,77,70,30.13,30.04,11,2,11,0.01
2013-1-16,80,76,72,72,68,62,92,78,69,30.10,30.01,13,3,13,0.05
2013-1-17,79,71,60,72,67,55,97,87,76,30.08,29.97,18,2,18,0.19
2013-1-18,71,64,53,62,55,47,83,73,61,30.23,30.08,12,2,13,0.00
2013-1-19,72,69,64,68,65,59,96,88,66,30.21,30.08,8,1,10,0.37
2013-1-20,80,71,63,71,67,62,98,89,72,30.14,30.01,9,1,9,0.09
2013-1-21,79,71,66,72,68,64,97,91,75,30.06,29.96,8,1,8,0.23
2013-1-22,78,69,62,65,61,55,96,77,60,30.20,30.00,16,3,17,0.01
2013-1-23,76,69,60,60,56,52,84,64,53,30.28,30.18,14,2,15,0.00
2013-1-24,77,66,57,60,55,52,89,70,50,30.29,30.19,10,1,11,0.00
2013-1-25,78,67,56,64,57,51,86,72,54,30.28,30.17,10,1,10,0.00
2013-1-26,79,68,58,64,60,54,94,76,56,30.25,30.16,11,1,11,0.00
2013-1-27,79,73,64,66,63,60,88,73,57,30.27,30.19,11,1,12,0.00
2013-1-28,79,75,72,68,65,63,79,72,64,30.31,30.22,12,3,12,0.00
2013-1-29,78,75,74,70,68,65,82,78,74,30.23,30.12,13,4,13,0.00
2013-1-30,78,75,73,70,67,64,87,77,69,30.12,29.96,17,4,17,0.00
2013-1-31,74,68,59,72,60,42,94,77,50,30.17,29.94,12,2,13,0.00
2013-2-1,76,64,53,60,50,40,74,61,51,30.26,30.15,15,3,15,0.00
2013-2-2,75,65,56,56,51,38,82,62,47,30.26,30.11,9,1,10,0.00
2013-2-3,78,64,53,58,51,44,91,67,38,30.16,30.06,12,1,12,0.00
2013-2-4,75,62,49,57,50,40,84,65,37,30.14,30.02,9,1,9,0.00
2013-2-5,76,67,54,65,59,51,95,77,59,30.08,30.00,10,1,11,0.00
2013-2-6,79,70,60,70,64,59,97,80,66,30.10,30.01,9,1,10,0.00
2013-2-7,78,74,70,68,66,63,83,74,66,30.07,29.94,11,3,12,0.00
2013-2-8,86,75,69,73,69,64,95,81,58,30.02,29.90,9,1,11,0.00
2013-2-9,80,71,63,70,64,60,96,79,66,30.16,30.00,13,1,13,0.00
2013-2-10,74,72,69,65,63,57,87,73,63,30.25,30.14,14,3,15,0.08
2013-2-11,77,74,71,68,65,61,78,74,68,30.22,30.11,14,4,14,0.00
2013-2-12,80,75,70,71,68,66,91,80,70,30.11,29.97,16,3,16,0.00
2013-2-13,81,76,70,74,71,68,94,85,77,30.00,29.89,15,3,16,0.00
2013-2-14,82,72,64,75,69,62,96,89,76,30.00,29.84,14,2,14,0.90
2013-2-15,73,67,64,68,65,63,97,94,85,30.01,29.93,10,1,10,0.79
2013-2-16,76,66,55,66,58,46,97,78,46,30.08,29.87,15,2,15,0.01
2013-2-17,63,53,44,46,32,22,74,48,26,30.30,30.07,18,3,18,0.00
2013-2-18,70,60,47,58,47,35,73,63,49,30.32,30.20,14,3,14,0.00
2013-2-19,76,72,69,67,62,55,87,72,61,30.20,30.08,17,4,17,0.00
2013-2-20,80,71,65,70,65,60,95,83,59,30.11,30.01,11,1,11,0.00
2013-2-21,79,75,71,70,67,64,86,77,68,30.09,29.99,10,3,10,0.00
2013-2-22,80,76,74,73,71,68,88,83,77,30.10,30.01,15,5,15,0.00
2013-2-23,81,77,74,74,71,68,91,84,77,30.04,29.92,15,4,15,0.00
2013-2-24,84,76,71,75,72,68,97,88,67,29.99,29.89,12,2,12,0.00
2013-2-25,82,76,68,75,71,66,97,87,79,29.91,29.81,14,2,16,0.00
2013-2-26,82,79,76,75,73,71,89,82,70,29.89,29.79,19,4,19,0.00
2013-2-27,79,71,66,73,67,63,95,88,62,29.96,29.85,8,1,8,0.13
2013-2-28,72,65,60,64,56,47,95,73,45,30.00,29.89,10,1,10,0.01
2013-3-1,67,63,58,58,53,48,89,71,61,29.98,29.90,10,1,12,0.01
2013-3-2,68,59,52,49,44,38,72,59,42,30.03,29.95,17,2,18,0.00
2013-3-3,66,56,50,48,44,41,85,66,44,30.15,29.96,13,1,14,0.01
2013-3-4,67,55,42,46,40,35,75,59,34,30.22,30.12,15,2,15,0.00
2013-3-5,72,62,48,59,53,43,94,73,56,30.18,30.08,12,2,13,0.00
2013-3-6,80,66,53,67,53,27,92,66,25,30.10,29.94,14,2,14,0.02
2013-3-7,72,59,47,55,46,36,87,62,38,30.18,30.07,10,2,11,0.00
2013-3-8,76,64,52,58,53,48,91,70,43,30.20,30.10,10,1,10,0.00
2013-3-9,78,66,54,61,55,49,89,69,52,30.19,30.10,13,2,13,0.00
2013-3-10,76,71,67,63,58,54,77,64,55,30.16,30.06,11,2,11,0.00
2013-3-11,76,72,70,64,62,59,77,69,59,30.10,29.95,13,4,16,0.00
2013-3-12,79,74,71,71,67,63,84,78,68,30.00,29.91,16,4,16,0.00
2013-3-13,79,67,58,66,58,48,90,73,49,30.12,29.97,16,2,16,0.00
2013-3-14,74,62,54,53,49,41,87,65,33,30.20,30.08,18,3,18,0.00
2013-3-15,75,64,53,58,51,44,80,64,45,30.25,30.15,16,2,16,0.00
2013-3-16,74,65,53,58,54,50,95,70,52,30.19,30.09,11,2,12,0.00
2013-3-17,76,69,60,63,59,54,86,71,60,30.15,30.02,13,2,13,0.00
2013-3-18,79,73,68,70,66,62,94,80,72,30.07,29.96,14,3,17,0.05
2013-3-19,81,73,67,71,69,65,96,87,63,30.01,29.82,14,1,15,0.02
2013-3-20,79,71,63,71,66,60,98,84,62,29.98,29.80,12,2,12,0.01
2013-3-21,76,67,57,62,57,51,91,71,43,29.94,29.83,11,2,12,0.00
2013-3-22,75,68,54,71,60,51,93,78,62,30.01,29.90,12,2,12,0.00
2013-3-23,82,77,71,76,73,69,97,88,75,29.98,29.81,15,3,17,0.01
2013-3-24,90,81,75,74,73,70,95,78,54,29.89,29.68,17,3,17,0.01
2013-3-25,82,75,66,73,62,42,94,66,36,29.99,29.74,13,2,13,0.01
2013-3-26,71,62,52,45,40,31,61,44,25,30.21,29.98,18,4,19,0.00
2013-3-27,71,58,46,51,44,35,72,59,41,30.24,30.16,14,2,14,0.00
2013-3-28,74,62,51,53,46,35,77,58,34,30.26,30.16,12,2,12,0.00
2013-3-29,78,66,56,58,51,42,73,59,45,30.28,30.20,13,2,13,0.00
2013-3-30,75,69,64,56,54,51,68,58,45,30.26,30.16,11,2,13,0.00
2013-3-31,78,73,69,68,63,55,82,71,61,30.19,30.05,15,4,15,0.00
2013-4-1,89,76,72,72,68,62,87,77,48,30.05,29.94,15,3,17,0.00
2013-4-2,82,74,66,69,67,64,96,79,62,30.08,29.98,10,1,10,0.00
2013-4-3,80,76,72,71,69,67,85,79,70,30.06,29.99,14,4,16,0.00
2013-4-4,81,76,68,74,71,65,96,85,77,30.04,29.90,19,4,22,1.45
2013-4-5,74,69,65,71,66,64,97,92,81,29.98,29.82,11,1,12,0.69
2013-4-6,80,69,59,69,62,57,95,80,64,30.08,29.92,15,3,15,0.12
2013-4-7,78,73,71,67,64,62,81,73,65,30.13,30.01,12,2,13,0.02
2013-4-8,80,74,66,66,63,60,83,68,59,30.13,30.04,10,1,10,0.00
2013-4-9,81,76,74,70,68,65,79,75,68,30.15,30.04,12,2,12,0.00
2013-4-10,82,78,74,74,71,67,85,80,75,30.10,29.99,15,3,15,0.00
2013-4-11,82,78,76,74,72,71,88,82,76,30.02,29.90,16,6,17,0.00
2013-4-12,84,80,78,78,75,73,91,86,80,29.94,29.86,17,5,17,0.01
2013-4-13,84,78,75,76,74,69,91,85,67,29.98,29.87,11,2,14,0.01
2013-4-14,84,80,76,76,75,73,93,85,75,29.96,29.89,15,3,15,0.01
2013-4-15,85,78,71,78,74,69,95,88,74,30.06,29.92,12,2,13,0.36
2013-4-16,86,78,71,78,74,70,98,87,73,30.11,30.01,13,2,13,0.05
2013-4-17,85,79,75,73,71,69,87,77,64,30.10,30.01,13,2,13,0.00
2013-4-18,84,80,76,75,72,69,84,77,70,30.05,29.97,11,4,12,0.00
2013-4-19,85,81,78,76,74,71,86,78,67,30.05,29.96,17,5,17,0.00
2013-4-20,85,77,71,78,74,68,97,89,71,30.07,29.93,15,2,15,1.96
2013-4-21,82,77,72,75,73,69,96,87,71,30.09,29.98,14,2,14,0.02
2013-4-22,81,74,69,73,71,68,96,89,70,30.04,29.92,11,1,11,0.34
2013-4-23,84,75,68,73,68,62,97,79,59,30.08,29.94,17,3,17,0.00
2013-4-24,82,77,73,70,65,62,74,67,60,30.13,30.02,10,1,12,0.00
2013-4-25,84,77,72,68,64,62,72,65,54,30.19,30.07,11,2,11,0.00
2013-4-26,83,76,71,70,65,62,75,69,60,30.22,30.10,15,2,15,0.00
2013-4-27,82,77,73,69,66,62,79,69,59,30.20,30.07,15,2,15,0.00
2013-4-28,82,77,74,68,66,63,78,67,58,30.11,29.99,13,2,13,0.00
2013-4-29,81,78,75,72,69,64,82,75,67,30.03,29.93,15,4,15,0.00
2013-4-30,83,77,69,74,71,67,96,82,71,30.00,29.92,11,2,11,1.54
2013-5-1,83,76,70,75,72,68,96,86,74,29.99,29.90,10,1,10,0.47
2013-5-2,78,74,68,74,70,66,97,89,76,29.94,29.78,22,2,22,5.04
2013-5-3,87,75,68,73,70,67,96,85,54,29.81,29.68,10,1,12,0.65
2013-5-4,89,77,68,73,69,66,97,78,53,29.79,29.68,13,1,13,0.00
2013-5-5,84,74,64,70,64,55,92,71,44,29.92,29.75,13,1,14,0.00
2013-5-6,83,72,60,67,61,56,93,71,43,30.01,29.91,11,1,11,0.00
2013-5-7,84,73,63,68,63,59,90,71,48,30.06,29.96,11,1,11,0.00
2013-5-8,82,73,62,68,63,58,93,72,48,30.13,30.04,9,1,9,0.00
2013-5-9,84,76,65,75,68,59,87,77,65,30.14,30.06,10,1,10,0.00
2013-5-10,85,80,73,75,73,69,93,80,62,30.13,30.02,13,2,13,0.00
2013-5-11,85,79,73,77,74,70,96,85,71,30.07,29.98,14,2,14,0.45
2013-5-12,85,78,72,76,73,69,96,86,70,30.06,29.95,13,2,13,0.53
2013-5-13,89,78,71,76,72,69,98,82,60,30.07,29.98,12,1,12,0.01
2013-5-14,83,78,73,69,63,58,75,62,51,30.17,30.05,14,3,14,0.00
2013-5-15,82,77,73,66,62,58,71,61,50,30.18,30.08,10,2,13,0.00
2013-5-16,82,77,73,67,64,58,71,63,54,30.11,30.03,10,2,10,0.00
2013-5-17,84,79,75,75,71,65,89,76,68,30.08,30.00,10,2,10,0.00
2013-5-18,84,80,75,75,73,70,91,79,71,30.10,30.02,11,3,13,0.00
2013-5-19,84,80,77,73,71,68,81,74,65,30.09,29.99,10,2,10,0.00
2013-5-20,82,77,72,75,73,69,96,86,77,30.07,29.96,12,2,14,1.21
2013-5-21,81,77,72,76,72,69,95,85,76,30.04,29.92,13,2,13,0.27
2013-5-22,83,77,72,76,73,67,96,87,68,29.96,29.89,14,2,16,0.26
2013-5-23,94,82,73,78,75,69,96,80,48,30.00,29.90,9,1,10,0.00
2013-5-24,90,82,76,79,76,73,95,81,61,30.05,29.93,10,1,10,0.00
2013-5-25,87,81,75,75,70,65,87,69,56,30.15,30.03,14,2,15,0.00
2013-5-26,85,80,76,71,67,64,77,66,57,30.16,30.09,14,2,14,0.00
2013-5-27,86,80,76,76,72,66,82,75,68,30.15,30.06,12,2,14,0.00
2013-5-28,83,79,75,75,73,71,93,83,75,30.09,30.03,16,4,17,0.33
2013-5-29,80,77,73,75,72,69,95,87,76,30.08,30.01,22,4,22,1.40
2013-5-30,83,79,75,76,73,71,94,83,75,30.06,29.99,18,5,18,0.28
2013-5-31,84,79,76,77,74,72,92,85,76,30.05,29.99,14,3,15,0.15
2013-6-1,84,78,74,78,75,72,96,91,79,30.02,29.95,11,1,11,0.72
2013-6-2,85,78,72,78,74,71,98,87,72,30.00,29.91,11,1,12,0.01
2013-6-3,85,78,73,78,74,71,97,88,72,30.02,29.91,11,1,11,0.97
2013-6-4,83,78,72,78,75,71,98,90,76,30.04,29.95,8,0,8,0.24
2013-6-5,84,82,80,78,77,75,89,86,81,30.01,29.89,10,2,10,0.00
2013-6-6,86,80,75,80,77,72,96,89,76,29.91,29.78,17,5,22,0.51
2013-6-7,90,78,74,80,75,72,98,90,68,30.00,29.83,15,1,15,1.06
2013-6-8,86,80,74,81,77,73,98,89,75,30.09,29.95,12,2,12,0.09
2013-6-9,86,83,80,78,76,74,86,81,73,30.10,30.03,11,3,13,0.00
2013-6-10,87,83,81,79,77,76,87,82,73,30.09,30.00,12,2,12,0.00
2013-6-11,87,82,79,78,77,74,91,84,70,30.09,30.00,12,2,12,0.00
2013-6-12,85,81,77,79,77,74,94,87,78,30.07,30.00,8,0,8,0.00
2013-6-13,88,81,75,78,75,69,98,84,58,30.05,29.94,11,1,11,0.00
2013-6-14,93,80,74,79,74,72,93,83,58,29.97,29.87,16,1,16,0.19
2013-6-15,87,81,74,79,76,73,97,84,73,30.05,29.92,9,1,9,0.00
2013-6-16,88,82,74,80,76,73,97,82,72,30.08,30.01,9,2,10,0.00
2013-6-17,88,84,81,78,77,74,83,78,69,30.08,30.00,11,2,11,0.00
2013-6-18,88,84,81,78,77,75,84,79,71,30.07,29.98,12,3,12,0.00
2013-6-19,88,84,79,79,77,75,91,79,68,30.04,29.98,11,2,14,0.00
2013-6-20,87,81,72,78,75,68,96,82,71,30.08,30.01,13,2,13,0.59
2013-6-21,88,84,81,77,75,73,84,75,66,30.11,30.02,12,2,12,0.00
2013-6-22,88,84,80,78,75,73,83,76,68,30.09,30.02,9,1,10,0.41
2013-6-23,87,83,77,78,75,72,87,76,66,30.12,30.04,13,3,13,0.00
2013-6-24,88,84,81,78,75,73,83,76,68,30.16,30.07,11,2,11,0.00
2013-6-25,88,83,81,80,76,74,85,79,73,30.12,30.03,14,2,15,0.00
2013-6-26,87,84,79,78,76,74,90,78,69,30.08,30.00,11,3,12,0.00
2013-6-27,86,83,81,78,76,72,84,79,70,30.05,29.95,8,2,9,0.00
2013-6-28,87,82,76,78,76,73,94,81,71,29.99,29.86,12,2,12,0.00
2013-6-29,88,82,74,79,76,71,97,84,71,29.91,29.83,13,2,14,0.67
2013-6-30,88,82,77,79,76,73,93,82,68,29.94,29.85,17,3,17,0.10
2013-7-1,87,83,79,79,77,74,91,82,73,30.02,29.91,14,3,14,0.05
2013-7-2,88,83,78,80,77,74,92,83,76,30.10,29.97,12,3,13,0.06
2013-7-3,88,83,78,79,76,70,91,81,72,30.12,30.04,18,4,18,0.00
2013-7-4,88,84,76,78,76,72,91,78,70,30.15,30.06,14,4,14,0.00
2013-7-5,86,82,77,78,76,74,92,81,74,30.12,30.04,14,4,16,0.12
2013-7-6,88,83,80,79,76,74,89,78,69,30.11,30.02,12,3,12,0.04
2013-7-7,88,84,81,79,76,74,83,77,70,30.09,30.01,14,2,14,0.00
2013-7-8,88,83,78,78,75,72,85,76,65,30.14,30.06,10,2,18,0.04
2013-7-9,87,82,78,76,74,70,85,77,63,30.13,30.04,11,1,11,0.00
2013-7-10,84,79,73,78,74,70,97,87,79,30.08,29.99,12,1,12,0.83
2013-7-11,87,83,80,78,76,74,86,80,71,30.03,29.94,10,2,11,0.00
2013-7-12,89,82,76,79,75,71,94,80,65,29.97,29.90,10,1,12,0.04
2013-7-13,85,75,72,77,73,70,97,92,71,30.02,29.91,12,0,12,5.84
2013-7-14,87,79,72,77,74,71,97,85,67,30.08,29.98,10,1,11,0.59
2013-7-15,88,80,73,78,74,72,96,83,68,30.08,30.00,11,0,11,0.08
2013-7-16,83,79,74,76,73,70,91,83,71,30.14,30.03,22,1,22,0.31
2013-7-17,80,76,72,76,73,69,96,91,81,30.16,30.04,14,0,14,2.68
2013-7-18,82,76,72,78,74,70,97,94,80,30.12,30.05,10,0,10,1.38
2013-7-19,87,81,73,80,77,72,98,87,76,30.12,30.04,12,1,12,0.00
2013-7-20,87,82,76,80,77,72,93,85,76,30.11,30.03,12,1,13,0.00
2013-7-21,87,82,77,80,77,74,95,86,78,30.14,30.05,9,1,10,0.00
2013-7-22,87,83,80,78,77,75,89,81,73,30.14,30.06,9,1,10,0.00
2013-7-23,88,83,76,80,76,74,95,82,66,30.10,29.96,10,1,11,0.47
2013-7-24,93,83,77,80,76,71,96,81,56,30.02,29.90,11,0,12,0.00
2013-7-25,95,85,74,79,75,72,95,73,53,30.01,29.91,6,0,7,0.00
2013-7-26,96,83,77,80,76,74,94,81,54,30.02,29.92,11,0,13,0.08
2013-7-27,85,80,77,80,76,74,96,88,79,30.00,29.93,12,0,12,0.00
2013-7-28,88,82,77,80,76,74,95,83,70,30.07,29.95,10,0,10,0.00
2013-7-29,89,84,78,81,78,75,93,82,72,30.13,30.01,12,0,12,0.00
2013-7-30,89,84,76,81,78,74,95,82,73,30.15,30.07,11,0,11,0.16
2013-7-31,89,85,82,80,77,74,87,77,69,30.10,30.00,11,1,11,0.00
2013-8-1,90,84,81,78,76,74,83,76,66,30.05,29.94,10,1,10,0.00
2013-8-2,90,82,75,79,75,72,95,82,61,30.05,29.91,11,0,11,0.24
2013-8-3,87,78,73,80,75,70,96,90,70,30.12,30.01,13,0,14,0.28
2013-8-4,90,80,75,80,76,74,97,87,67,30.10,29.98,10,1,10,0.00
2013-8-5,93,82,77,81,77,73,95,85,66,30.03,29.94,7,0,10,0.20
2013-8-6,88,82,76,80,76,73,97,84,73,29.98,29.88,10,0,10,0.00
2013-8-7,87,84,78,79,77,73,94,80,73,29.97,29.89,12,1,12,0.00
2013-8-8,89,86,83,79,77,72,83,74,64,30.01,29.92,13,2,13,0.00
2013-8-9,86,82,77,78,75,70,86,79,70,30.05,29.94,14,2,15,0.24
2013-8-10,89,85,81,79,77,73,85,78,66,30.11,30.02,10,2,11,0.00
2013-8-11,90,85,82,80,78,76,84,78,70,30.13,30.06,10,1,10,0.00
2013-8-12,90,84,80,80,76,72,83,76,67,30.10,30.00,9,0,10,0.00
2013-8-13,88,85,82,79,77,74,84,77,67,30.04,29.95,11,1,11,0.00
2013-8-14,88,85,82,78,76,74,83,76,68,30.02,29.93,13,1,13,0.00
2013-8-15,85,81,75,78,76,74,95,85,76,30.05,29.96,10,0,10,0.51
2013-8-16,89,85,79,81,79,76,95,81,71,30.05,29.97,9,1,9,0.00
2013-8-17,89,86,83,81,79,77,85,80,71,30.08,30.00,10,1,10,0.00
2013-8-18,90,85,82,81,78,74,85,80,72,30.07,29.99,12,1,12,0.00
2013-8-19,89,85,81,80,78,76,88,79,69,30.06,29.96,11,1,11,0.00
2013-8-20,90,85,79,80,77,73,92,78,68,30.06,29.98,12,0,12,0.08
2013-8-21,89,84,79,81,78,75,93,83,73,30.07,29.99,14,1,16,0.08
2013-8-22,89,85,76,81,78,73,97,81,73,30.08,29.95,25,1,25,0.28
2013-8-23,89,84,80,80,77,74,88,80,71,30.00,29.93,12,0,12,0.04
2013-8-24,89,84,76,80,77,73,93,79,70,30.10,29.96,10,0,12,0.28
2013-8-25,86,81,75,79,76,73,95,86,75,30.14,30.02,8,0,8,0.43
2013-8-26,90,82,78,80,76,73,89,80,69,30.11,30.01,11,0,14,0.00
2013-8-27,89,80,74,79,74,72,95,83,61,30.04,29.96,7,0,7,0.08
2013-8-28,86,82,77,78,75,73,96,81,70,30.04,29.94,9,0,9,0.55
2013-8-29,88,83,74,81,76,72,94,82,73,30.02,29.92,10,0,10,0.00
2013-8-30,88,83,76,78,75,71,96,79,61,30.00,29.89,13,1,13,0.00
2013-8-31,87,80,76,78,75,72,95,85,74,29.98,29.91,9,0,9,0.00
2013-9-1,88,80,74,80,76,73,97,87,74,29.99,29.92,8,0,9,0.00
2013-9-2,89,79,74,80,75,71,97,90,72,30.02,29.93,7,0,7,0.43
2013-9-3,90,81,72,82,76,72,98,88,75,30.02,29.92,8,0,8,0.00
2013-9-4,86,82,78,80,78,76,95,85,79,30.06,29.94,11,0,11,0.71
2013-9-5,90,84,81,82,78,76,91,82,73,30.06,29.98,8,0,8,0.00
2013-9-6,89,85,82,81,78,76,88,81,71,30.03,29.92,9,0,9,0.00
2013-9-7,86,80,75,79,76,71,92,86,76,29.97,29.89,12,0,12,0.00
2013-9-8,90,80,74,80,75,72,97,85,65,29.94,29.84,7,0,7,0.00
2013-9-9,90,82,75,80,76,72,93,81,66,29.99,29.89,9,0,10,0.00
2013-9-10,90,82,77,80,76,73,94,83,70,30.03,29.94,14,0,14,0.31
2013-9-11,87,82,79,80,76,73,93,83,75,30.05,29.95,12,0,13,0.12
2013-9-12,85,81,77,79,76,73,95,86,79,30.01,29.88,9,0,9,0.04
2013-9-13,88,81,74,78,76,73,97,85,69,29.90,29.80,8,0,8,0.00
2013-9-14,88,83,76,79,76,74,96,80,70,29.96,29.82,8,0,9,0.00
2013-9-15,85,82,80,80,77,74,91,85,77,30.03,29.92,17,1,17,0.08
2013-9-16,86,82,78,80,77,74,91,84,76,30.03,29.95,13,0,13,0.16
2013-9-17,86,81,77,80,76,73,94,85,76,30.02,29.90,10,0,12,0.04
2013-9-18,86,80,74,80,76,71,97,87,77,30.00,29.90,8,0,8,3.87
2013-9-19,89,80,74,80,75,72,97,86,70,29.99,29.91,12,0,12,0.20
2013-9-20,89,82,77,76,73,70,93,74,59,29.99,29.88,12,0,14,0.08
2013-9-21,86,82,78,77,74,72,84,78,68,29.90,29.77,7,0,8,0.00
2013-9-22,89,83,78,79,77,75,92,81,68,29.86,29.75,12,1,13,0.00
2013-9-23,88,81,76,80,77,72,96,89,73,29.97,29.85,21,0,21,0.51
2013-9-24,91,82,76,82,77,72,98,86,65,29.96,29.86,13,1,13,0.08
2013-9-25,90,80,74,81,75,70,95,86,68,29.90,29.80,8,0,9,0.12
2013-9-26,91,81,75,83,77,74,97,89,67,29.86,29.79,6,0,6,0.08
2013-9-27,92,81,75,78,75,72,98,83,54,29.90,29.81,11,0,12,0.00
2013-9-28,89,80,73,78,74,71,97,84,67,29.94,29.86,16,0,16,0.24
2013-9-29,87,82,76,76,72,70,88,73,61,29.96,29.87,9,0,9,0.00
2013-9-30,88,82,77,76,73,70,82,73,62,29.99,29.89,8,0,8,0.00
2013-10-1,89,84,80,78,74,72,81,74,66,30.02,29.94,13,0,13,0.00
2013-10-2,86,82,80,77,75,73,83,78,72,30.03,29.95,10,0,11,0.00
2013-10-3,88,82,78,79,75,72,87,79,70,30.04,29.94,9,0,9,0.00
2013-10-4,88,82,79,76,73,70,83,75,63,30.05,29.97,9,0,9,0.00
2013-10-5,89,81,72,77,73,69,93,77,64,30.02,29.92,7,0,7,0.00
2013-10-6,88,83,79,77,74,71,88,74,61,29.96,29.86,8,0,8,0.00
2013-10-7,90,80,74,78,74,71,96,83,56,29.89,29.80,14,1,14,0.59
2013-10-8,90,80,76,80,76,71,96,88,68,29.92,29.84,10,0,11,0.16
2013-10-9,88,78,70,79,73,69,97,87,73,29.98,29.89,13,0,13,0.00
2013-10-10,88,80,72,78,73,70,97,82,63,30.00,29.93,12,1,12,0.20
2013-10-11,88,80,71,74,70,67,91,72,60,30.00,29.93,11,0,13,0.00
2013-10-12,87,78,68,73,69,66,95,74,57,30.02,29.94,9,0,9,0.00
2013-10-13,88,80,73,74,69,65,91,70,51,30.04,29.95,7,0,8,0.00
2013-10-14,87,79,70,74,70,67,92,73,59,30.01,29.90,0,0,0,0.00
2013-10-15,88,80,71,76,71,68,94,77,64,29.94,29.86,9,0,9,0.00
2013-10-16,85,78,73,76,71,68,94,79,66,29.95,29.87,7,0,8,0.08
2013-10-17,86,80,72,76,72,69,94,78,66,29.96,29.88,7,0,8,0.00
2013-10-18,86,81,73,76,73,70,92,77,68,29.98,29.89,8,0,9,0.00
2013-10-19,86,82,79,77,74,72,81,76,70,29.96,29.87,10,1,10,0.00
2013-10-20,87,82,78,79,76,74,88,83,75,29.96,29.86,9,0,9,0.00
2013-10-21,87,83,80,78,76,74,88,80,73,30.00,29.90,10,1,10,0.00
2013-10-22,88,83,77,79,76,74,93,82,72,29.96,29.83,12,1,12,0.00
2013-10-23,90,81,76,78,74,70,94,81,61,29.94,29.81,14,0,14,0.16
2013-10-24,81,77,73,70,67,64,82,73,63,30.08,29.92,12,1,13,0.00
2013-10-25,85,78,71,69,66,63,81,66,54,30.13,30.04,16,2,17,0.00
2013-10-26,85,78,72,69,65,62,73,63,53,30.14,30.04,12,1,12,0.00
2013-10-27,84,75,66,69,64,61,83,70,55,30.08,30.01,10,0,11,0.00
2013-10-28,87,79,75,71,66,63,74,66,50,30.13,30.04,10,0,10,0.00
2013-10-29,87,80,76,74,69,65,76,69,60,30.16,30.07,14,1,14,0.00
2013-10-30,86,80,76,72,69,66,75,69,58,30.18,30.07,13,1,13,0.00
2013-10-31,85,81,78,74,72,67,82,74,64,30.10,29.99,11,1,11,0.00
2013-11-1,85,81,79,76,74,72,82,78,72,30.00,29.88,11,2,11,0.00
2013-11-2,90,80,71,74,71,65,97,77,46,29.93,29.80,13,0,13,0.00
2013-11-3,84,76,69,69,65,62,84,70,54,30.01,29.88,17,2,18,0.00
2013-11-4,83,77,75,71,66,59,77,68,51,30.06,29.99,18,3,18,0.00
2013-11-5,82,78,74,73,70,66,91,76,67,30.08,30.00,17,2,19,0.04
2013-11-6,86,80,76,73,71,69,81,75,61,30.05,29.98,16,1,16,0.00
2013-11-7,87,77,69,75,71,67,95,81,63,30.00,29.91,10,0,10,0.00
2013-11-8,86,77,72,76,72,68,94,84,63,30.02,29.92,17,2,17,0.24
2013-11-9,82,77,74,75,73,71,94,87,79,30.10,30.00,18,2,18,0.24
2013-11-10,84,79,77,74,72,69,84,77,69,30.11,30.03,14,1,14,0.00
2013-11-11,86,79,77,74,70,67,81,74,65,30.10,30.03,12,1,14,0.00
2013-11-12,86,78,72,73,70,68,91,75,62,30.07,29.96,10,0,10,0.00
2013-11-13,79,73,71,69,65,59,90,77,64,30.20,29.98,24,3,24,0.28
2013-11-14,77,73,70,65,60,56,73,65,59,30.23,30.12,17,2,19,0.00
2013-11-15,82,78,74,71,68,62,86,71,64,30.13,30.01,17,1,17,0.00
2013-11-16,81,78,72,73,70,64,88,76,67,30.09,30.00,12,2,14,0.00
2013-11-17,83,80,78,74,72,70,84,77,70,30.07,29.99,11,2,11,0.00
2013-11-18,83,78,75,75,72,71,90,81,70,30.02,29.91,7,0,7,0.00
2013-11-19,85,76,72,76,72,69,93,87,69,29.93,29.84,9,0,9,0.00
2013-11-20,86,77,70,77,72,68,97,86,74,30.05,29.91,9,0,9,0.00
2013-11-21,79,76,72,76,73,71,98,91,82,30.13,30.03,13,0,15,2.20
2013-11-22,82,78,74,74,72,70,94,82,73,30.14,30.06,15,2,15,0.08
2013-11-23,84,79,75,75,72,70,87,80,70,30.07,29.97,11,1,11,0.00
2013-11-24,84,75,68,72,69,64,96,82,64,30.13,29.97,18,2,21,0.51
2013-11-25,77,74,72,71,66,62,91,78,71,30.19,30.04,19,2,19,0.00
2013-11-26,81,78,73,76,73,70,92,86,80,30.04,29.82,19,4,19,0.04
2013-11-27,79,71,59,76,66,53,96,84,58,30.11,29.78,13,1,14,0.98
2013-11-28,75,64,49,65,55,46,91,74,60,30.23,30.11,13,1,13,0.00
2013-11-29,79,72,63,65,61,56,86,69,56,30.26,30.18,14,2,16,0.00
2013-11-30,78,72,63,71,64,60,91,78,68,30.20,30.09,18,1,18,0.08
2013-12-1,78,70,64,71,67,61,97,89,75,30.09,29.93,8,0,9,1.50
2013-12-2,75,68,60,68,65,59,98,91,70,29.93,29.82,3,0,7,0.04
2013-12-3,79,70,60,67,64,58,97,83,63,30.00,29.89,4,0,4,0.00
2013-12-4,81,74,65,70,67,63,97,80,67,30.08,29.98,7,0,9,0.00
2013-12-5,82,78,75,73,70,67,81,78,72,30.16,30.07,12,2,14,0.00
2013-12-6,82,78,76,72,70,68,83,77,69,30.18,30.08,13,3,13,0.00
2013-12-7,82,78,71,73,70,67,91,78,69,30.21,30.13,10,0,10,0.00
2013-12-8,82,78,72,73,70,67,92,78,66,30.20,30.11,12,2,14,0.04
2013-12-9,82,79,77,72,70,67,83,74,63,30.19,30.10,14,3,15,0.00
2013-12-10,82,78,75,74,72,70,90,81,74,30.15,30.07,13,2,13,0.00
2013-12-11,84,77,72,75,72,70,95,85,73,30.19,30.11,7,0,7,0.00
2013-12-12,80,73,70,73,67,61,96,81,68,30.19,30.12,16,1,18,0.00
2013-12-13,80,74,71,70,65,60,85,74,65,30.19,30.08,16,2,16,0.00
2013-12-14,81,78,76,73,72,69,87,80,74,30.10,29.98,16,4,16,0.00
2013-12-15,86,78,71,76,72,68,92,84,70,30.05,29.92,12,0,12,0.00
2013-12-16,75,69,62,68,62,59,91,80,67,30.14,30.02,8,0,8,0.00
2013-12-17,80,69,60,67,61,58,94,77,58,30.17,30.09,11,1,13,0.00
2013-12-18,80,68,60,63,59,56,93,75,54,30.23,30.13,11,0,11,0.00
2013-12-19,79,73,62,66,62,57,86,68,58,30.23,30.14,11,1,12,0.00
2013-12-20,81,77,74,72,69,64,79,74,68,30.18,30.09,11,1,11,0.00
2013-12-21,81,78,77,74,72,70,86,81,74,30.14,30.06,18,4,18,0.00
2013-12-22,82,79,77,74,73,72,86,82,75,30.15,30.08,12,4,15,0.00
2013-12-23,82,78,71,75,73,68,94,83,75,30.17,30.11,13,3,13,0.00
2013-12-24,85,73,67,74,68,63,97,85,62,30.17,30.07,13,1,13,0.00
2013-12-25,78,74,72,69,67,65,82,78,71,30.17,30.08,16,2,16,0.00
2013-12-26,80,76,74,73,70,68,89,82,75,30.16,30.06,11,1,12,0.04
2013-12-27,83,77,74,74,71,69,89,81,72,30.18,30.08,13,1,13,0.00
2013-12-28,81,77,75,73,71,69,89,82,75,30.17,30.02,14,2,15,0.00
2013-12-29,81,78,75,75,74,72,95,86,81,30.03,29.92,15,3,15,0.00
2013-12-30,81,74,70,74,71,66,97,90,75,30.13,29.97,8,0,9,0.00
2013-12-31,80,73,68,70,66,63,92,79,65,30.21,30.09,17,1,17,0.00
2014-1-1,80,77,74,75,71,65,91,84,73,30.18,30.03,13,1,13,0.04
2014-1-2,82,78,73,73,70,66,92,78,64,30.03,29.86,15,2,15,0.00